Regional Weather Roundup
Issued by NWS San Angelo, TX

Current Version | Previous Version | Text Only | Print | Product List | Glossary On
Versions: 1 2 3 4 5 6 7 8 9 10 11 12 13 14 15 16 17 18 19 20 21 22 23 24 25 26 27 28 29 30 31 32 33 34 35 36 37 38 39 40 41 42 43 44 45 46 47 48 49 50
000
ASUS44 KSJT 250611
RWRSJT
WEST CENTRAL TEXAS REGIONAL WEATHER ROUNDUP
NATIONAL WEATHER SERVICE SAN ANGELO TX
100 AM CDT SUN SEP 25 2016

NOTE: "FAIR" INDICATES FEW OR NO CLOUDS BELOW 12,000 FEET WITH NO
SIGNIFICANT WEATHER AND/OR OBSTRUCTIONS TO VISIBILITY.

TXZ049-054-064>066-071>073-076>078-098-099-113-114-127-128-139-140-
154-155-168>170-250700
...LOCATIONS ACROSS WEST CENTRAL TEXAS...

CITY           SKY/WX    TMP DP  RH WIND       PRES   REMARKS
SAN ANGELO     TSTM      71  68  90 N7        30.00R FOG
ABILENE        TSTM      67  66  97 S5        30.02F FOG
DYESS AFB      LGT RAIN  66  64  94 E5        29.99F
JUNCTION       LGT RAIN  75  65  70 SW16G30   30.01R
SWEETWATER     NOT AVBL
BROWNWOOD      CLOUDY    73  63  68 N7        30.01R
COLEMAN        CLOUDY    71  64  78 NE8       30.01S THUNDER
SONORA         RAIN      72  70  94 CALM      30.06R
OZONA          FAIR      70  63  78 CALM      30.03S
BRADY          NOT AVBL
$$

TEXAS PANHANDLE/OKLAHOMA PANHANDLE

CITY           SKY/WX    TMP DP  RH WIND       PRES   REMARKS
AMARILLO       CLOUDY    59  56  89 SE6       30.05R
BORGER         CLOUDY    67  65  93 S8        30.02S
CANADIAN       CLOUDY    69  67  95 E6        30.02R
DALHART        CLEAR     58  41  53 N13       30.09R
DUMAS          CLEAR     52  39  61 NW9       30.05S
GUYMON         NOT AVBL
HEREFORD       CLEAR     52  43  70 W9        30.06S
PAMPA          PTCLDY    66  64  94 SE9       30.05R
PERRYTON       CLOUDY    68  66  95 NE3       30.04R
$$

SOUTHERN PANHANDLE/SOUTH PLAINS/ROLLING PLAINS

CITY           SKY/WX    TMP DP  RH WIND       PRES   REMARKS
LUBBOCK        CLOUDY    65  64  97 SE9       30.02R
SNYDER           N/A     67  66  96 CALM      30.03R
CHILDRESS      CLOUDY    69  68  96 E5        30.00R
SEMINOLE       MOCLDY    67  64  90 CALM      30.03S
$$

PERMIAN BASIN

CITY           SKY/WX    TMP DP  RH WIND       PRES   REMARKS
MIDLAND        CLOUDY    68  64  87 SE13      30.00F
ODESSA         CLOUDY    69  62  78 SE9       30.01S
WINK           CLEAR     67  58  72 SE7       29.98R
$$

FAR WEST/SOUTHWEST MOUNTAINS/TRANS PECOS

CITY           SKY/WX    TMP DP  RH WIND       PRES   REMARKS
ALPINE         CLOUDY    66  56  71 S8        30.13S
DRYDEN           N/A     68  66  93 N3        29.97S
EL PASO        PTCLDY    70  39  32 N3        30.02S
FORT STOCKTON  MOCLDY    66  61  84 S12       29.99F
GUADALUPE PASS CLEAR     68  38  33 W8        30.12F
MARFA          CLOUDY   N/A N/A N/A SE7       30.12R
PECOS          CLOUDY    68  59  73 CALM      29.97S
$$

DALLAS/FORT WORTH METROPLEX

CITY           SKY/WX    TMP DP  RH WIND       PRES   REMARKS
DFW AIRPORT    MOCLDY    78  71  79 S6        29.97F
FTW MEACHAM    CLOUDY    79  71  76 SE10      29.96F
DAL-EXECUTIVE  CLOUDY    74  73  97 CALM      29.97F
GRAND PRAIRIE  CLOUDY    76  70  83 S3        29.99F
ADDISON        MOCLDY    78  73  85 SE8       29.99F
MESQUITE       CLOUDY    77  69  75 SE6       29.98F
LANCASTER      MOCLDY    76  70  82 S3        29.99S
$$

NORTH CENTRAL TEXAS

CITY           SKY/WX    TMP DP  RH WIND       PRES   REMARKS
SHRMAN/DENISON CLOUDY    79  71  76 S6        30.00S
GAINESVILLE      N/A     75  71  87 SE6       30.00F
BRIDGEPORT     CLOUDY    77  71  81 S7        29.98S
DENTON         CLOUDY    77  70  79 S8        29.97F
WAXAHACHIE     MOCLDY    74  73  99 E3        29.99F
GRANBURY       CLOUDY    79  71  77 S7        29.98S
$$

WESTERN NORTH TEXAS

CITY           SKY/WX    TMP DP  RH WIND       PRES   REMARKS
WICHITA FALLS  RAIN      69  68  96 E7        29.99R
VERNON         CLOUDY    71  67  84 SE8       29.99R
BRECKENRIDGE   CLOUDY    70  69  97 W3        29.99R
COMANCHE       CLOUDY    73  65  75 N5        30.02S
$$

CENTRAL AND SOUTH CENTRAL TEXAS

CITY           SKY/WX    TMP DP  RH WIND       PRES   REMARKS
AUSTIN/BERGSTM MOCLDY    74  73  97 CALM      29.95S
WACO           PTCLDY    75  74  96 SE8       29.96S
HILLSBORO      PTCLDY    73  72  94 SE7       29.97F
TEMPLE         CLEAR     76  74  93 S9        29.96F
KILLEEN-GRAY   MOCLDY    73  73 100 SE9       29.97R
FORT HOOD      CLEAR     73  72  95 SE7       29.95S
GEORGETOWN     PTCLDY    75  72  88 SE5       29.96S
LAGO VISTA     CLOUDY    77  73  86 SE6       29.99R
SAN MARCOS     CLOUDY    73  72  94 NE3       29.98R
NEW BRAUNFELS  CLOUDY    77  74  90 E6        29.93S
RANDOLPH AFB   CLOUDY    76  76 100 CALM      29.95R
SAN ANTONIO    CLOUDY    78  74  87 E3        29.96R
STINSON        CLOUDY    79  75  87 E5        29.92R
PLEASANTON     NOT AVBL
LA GRANGE      CLEAR     77  76  96 CALM      29.93R
GIDDINGS       CLEAR     74  73  94 E5        29.99S
$$

EAST TEXAS

CITY           SKY/WX    TMP DP  RH WIND       PRES   REMARKS
PARIS          PTCLDY    73  64  73 SE10      30.00S
CLARKSVILLE    NOT AVBL
TYLER          CLOUDY    76  72  87 SE3       30.01R
LONGVIEW       CLEAR     73  70  90 S3        30.00R
PALESTINE      PTCLDY    74  73  95 SE3       30.00S
NACOGDOCHES    PTCLDY    72  70  94 CALM      29.99S
$$

TEXAS HILL COUNTRY AND EDWARDS PLATEAU

CITY           SKY/WX    TMP DP  RH WIND       PRES   REMARKS
LLANO          PTCLDY    75  75 100 CALM      30.00R
HORSESHOE BAY  FAIR      76  73  88 SE3       29.96R
KERRVILLE      CLOUDY    76  72  86 SE7       29.99R
FREDERICKSBRG  MOCLDY    75  70  83 S5        29.99S
ROCKSPRINGS    LGT RAIN  68  66  94 S8        30.02F
HONDO          CLOUDY    80  74  81 E8        29.94R
UVALDE         CLOUDY    78  72  80 SE6       29.94R
DEL RIO        RAIN      71  69  93 SW14      29.94F FOG
$$

SOUTHEAST TEXAS

CITY           SKY/WX    TMP DP  RH WIND       PRES   REMARKS
COLLEGE STN    PTCLDY    77  74  90 E7        29.96F
CALDWELL       NOT AVBL
CROCKETT       NOT AVBL
BRENHAM        CLOUDY    76  75  96 CALM      29.96F
HUNTSVILLE     CLEAR     75  73  93 E3        29.97F
CONROE         PTCLDY    76  74  93 E6          N/A
HOUSTON BUSH   PTCLDY    76  74  93 SE3       29.96S
HOUSTON HOBBY  MOCLDY    77  74  90 CALM      29.95S
PERLAND        PTCLDY    78  74  87 CALM      29.97R
WHARTON        PTCLDY    76  75  95 SE6       29.95S
$$

THE UPPER TEXAS COAST

CITY           SKY/WX    TMP DP  RH WIND       PRES   REMARKS
ORANGE         PTCLDY    78  78 100 E3        30.00R
PORT ARTHUR    CLOUDY    79  75  87 E6        29.96S
GALVESTON      PTCLDY    82  77  84 SE9       29.96S
ANGLETON       PTCLDY    79  76  90 E5        29.95R
BAY CITY       MOCLDY    78  77  97 CALM      29.95S
$$

TEXAS COASTAL BEND, RIO GRANDE PLAINS DEEP SOUTH TEXAS

CITY           SKY/WX    TMP DP  RH WIND       PRES   REMARKS
VICTORIA       CLEAR     76  75  97 E6        29.92F
BEEVILLE       FAIR      77  77 100 SE5       29.90S
ROCKPORT       CLEAR     84  76  76 S7        29.88F
PORT ARANSAS   PTCLDY    84  76  76 S14G20    29.88F
PORT LAVACA    CLEAR     80  78  93 CALM      29.92S FOG
CORPUS CHRISTI PTCLDY    80  77  90 SE5       29.89S
KINGSVILLE NAS CLEAR     80  76  87 S8        29.88F
COTULLA        CLOUDY    83  72  69 SE12      29.90R
LAREDO         MOCLDY    84  71  65 SE13G20   29.88F
BROWNSVILLE    CLEAR     82  75  79 S9        29.90F
PORT ISABEL    CLEAR     83  75  77 S10       29.88F
HEBBRONVILLE   PTCLDY    79  72  78 S6        29.91S
MCALLEN        PTCLDY    85  75  72 SE13      29.88F
WESLACO        PTCLDY    83  75  77 S14G20    29.87F
FALFURRIAS     MOCLDY    81  73  78 S6        29.88S
EDINBURG       PTCLDY    83  74  74 SE9       29.88F
$$



USA.gov is the U.S. government's official web portal to all federal, state and local government web resources and services.